Flag for Mauritania Weather past 2 weeks in Nouadhibou, Mauritania

Now
70 °F

Clear.


Feels Like: 70 °F
Forecast: 71 / 84 °F
Wind: 12 mph from North

Location: Nouadhibou Airport

Current Time: Mar 31, 2015 at 3:39:39 AM

Latest Report: Mar 31, 2015 at 3:00 AM


Visibility: 5 mi

Pressure: 30.01 "Hg

Humidity: 53%

Dew point: 52 °F

Location of NouadhibouLocation

Historic Weather in Nouadhibou — Graph

°F

Nouadhibou temperature yesterday

Maximum temperature yesterday: 93 °F (at 4:00 PM)
Minimum temperature yesterday: 66 °F (at 7:00 AM)
Average temperature yesterday: 76 °F

Past Weeks' High & Low Weather Summary

 TemperatureHumidityPressure
High93 °F (Mar 30, 4:00 PM)94% (Mar 17, 3:00 AM)30.15 "Hg (Mar 17, 3:00 AM)
Low57 °F (Mar 18, 7:00 AM)13% (Mar 30, 4:00 PM)29.86 "Hg (Mar 20, 5:00 PM)
Average66 °F67%30.01 "Hg
* Reported Mar 16 2:00 AM — Mar 31 2:00 AM, Nouadhibou, Weather by CustomWeather, © 2015

Note: Actual official high and low records may vary slightly from our data, if they occured in-between our weather recording intervals... More about our weather records

Advertising

Nouadhibou weather history for previous 24 hours

 ConditionsComfort  
Time TempWeatherWind HumidityBarometerVisibility
2:00 AM
Tue, Mar 31
73 °FClear.12 mph44%30.04 "Hg5 mi
1:00 AM72 °FClear.12 mph53%30.04 "Hg5 mi
12:00 AM72 °FClear.14 mph57%30.04 "Hg5 mi
11:00 PM
Mon, Mar 30
72 °FClear.14 mph57%30.04 "Hg5 mi
10:00 PM72 °FClear.12 mph61%30.04 "Hg5 mi
9:00 PM72 °FClear.12 mph65%30.01 "Hg5 mi
8:00 PM72 °FClear.14 mph65%29.98 "Hg4 mi
7:00 PM72 °FClear.12 mph65%29.98 "Hg4 mi
6:00 PM77 °FClear.12 mph51%29.95 "Hg4 mi
5:00 PM88 °FClear.9 mph21%29.95 "Hg4 mi
4:00 PM93 °FClear.12 mph13%29.98 "Hg4 mi
3:00 PM91 °FClear.14 mph17%29.98 "Hg4 mi
2:00 PM90 °FClear.14 mph20%30.04 "Hg4 mi
1:00 PM88 °FClear.18 mph27%30.04 "Hg4 mi
12:00 PM86 °FClear.14 mph27%30.09 "Hg5 mi
11:00 AM82 °FClear.14 mph35%30.09 "Hg5 mi
10:00 AM73 °FClear.16 mph50%30.09 "Hg5 mi
9:00 AM72 °FClear.18 mph53%30.09 "Hg5 mi
8:00 AM66 °FSunny.14 mph64%30.09 "Hg10 mi
7:00 AM66 °FClear.16 mph60%30.07 "Hg5 mi
6:00 AM68 °FClear.18 mph56%30.04 "Hg5 mi
5:00 AM68 °FClear.18 mph56%30.04 "Hg5 mi
4:00 AM68 °FClear.16 mph60%30.04 "Hg5 mi
3:00 AM68 °FClear.18 mph60%30.04 "Hg5 mi
Weather by CustomWeather, © 2015

See weather overviewHow to use our weather pages